THY2VB LTFM-LGTS

Flight info

Callsign THY2VB
Flight time 0h 54m
Altitude 36000
Route BARPE1D/35L BARPE UM603 ARNAS
Aircraft A321/M-SDE3FGHIRWY/LB1

Departure

Time 2026-05-01 13:07
Airport İstanbul Airport (LTFM)

Arrival

Time 2026-05-01 14:01
Airport Thessaloniki Macedonia International Airport (LGTS)
Time Latitude Longitude Altitude Speed Heading
2026-05-01 12:32 41.25975 28.73568 334 ft 0 kts 107°
2026-05-01 12:54 41.25975 28.73567 334 ft 2 kts 107°
2026-05-01 12:55 41.25990 28.73501 332 ft 3 kts 107°
2026-05-01 12:55 41.25998 28.73475 329 ft 4 kts 131°
2026-05-01 12:55 41.26017 28.73461 330 ft 4 kts 187°
2026-05-01 12:56 41.26042 28.73469 331 ft 4 kts 197°
2026-05-01 12:56 41.26047 28.73471 331 ft 0 kts 197°
2026-05-01 12:59 41.26008 28.73455 329 ft 5 kts 197°
2026-05-01 13:00 41.25919 28.73402 332 ft 8 kts 236°
2026-05-01 13:00 41.25911 28.73314 333 ft 11 kts 269°
2026-05-01 13:01 41.26051 28.73242 333 ft 13 kts 359°
2026-05-01 13:01 41.26145 28.73240 333 ft 14 kts 359°
2026-05-01 13:01 41.26217 28.73090 332 ft 7 kts 269°
2026-05-01 13:02 41.26217 28.73056 332 ft 0 kts 269°
2026-05-01 13:07 41.30607 28.72440 2148 ft 171 kts
2026-05-01 13:07 41.31877 28.72465 2402 ft 195 kts
2026-05-01 13:07 41.33330 28.72493 2756 ft 221 kts
2026-05-01 13:08 41.34918 28.72514 3376 ft 232 kts
2026-05-01 13:08 41.36552 28.72475 4192 ft 239 kts 356°
2026-05-01 13:08 41.38083 28.71490 5008 ft 259 kts 321°
2026-05-01 13:08 41.38973 28.69341 5783 ft 279 kts 287°
2026-05-01 13:09 41.39074 28.66734 6664 ft 286 kts 270°
2026-05-01 13:09 41.38824 28.64091 7457 ft 291 kts 261°
2026-05-01 13:09 41.38175 28.61529 8334 ft 291 kts 251°
2026-05-01 13:09 41.37493 28.59017 9287 ft 288 kts 252°
2026-05-01 13:10 41.36825 28.56514 10183 ft 286 kts 251°
2026-05-01 13:10 41.36138 28.53939 10506 ft 306 kts 252°
2026-05-01 13:10 41.35400 28.51176 10756 ft 324 kts 252°
2026-05-01 13:10 41.34631 28.48321 11318 ft 330 kts 252°
2026-05-01 13:11 41.33852 28.45435 12001 ft 333 kts 252°
2026-05-01 13:11 41.33394 28.42417 12660 ft 334 kts 265°
2026-05-01 13:11 41.33197 28.39334 13433 ft 336 kts 266°
2026-05-01 13:11 41.33025 28.36232 14222 ft 336 kts 266°
2026-05-01 13:12 41.32847 28.33127 14834 ft 338 kts 266°
2026-05-01 13:12 41.32675 28.29991 15437 ft 341 kts 266°
2026-05-01 13:12 41.32508 28.26834 15996 ft 345 kts 266°
2026-05-01 13:12 41.32399 28.24723 16424 ft 345 kts 266°
2026-05-01 13:13 41.32237 28.21539 17125 ft 345 kts 266°
2026-05-01 13:13 41.32080 28.18336 17706 ft 348 kts 266°
2026-05-01 13:13 41.31917 28.15133 18383 ft 347 kts 264°
2026-05-01 13:13 41.31155 28.10962 18977 ft 353 kts 254°
2026-05-01 13:14 41.30453 28.07811 19407 ft 358 kts 254°
2026-05-01 13:14 41.29745 28.04633 19917 ft 360 kts 254°
2026-05-01 13:14 41.29263 28.02472 20240 ft 362 kts 254°
2026-05-01 13:14 41.28546 27.99256 20751 ft 363 kts 254°
2026-05-01 13:15 41.27828 27.96023 21229 ft 366 kts 254°
2026-05-01 13:15 41.27105 27.92766 21699 ft 368 kts 254°
2026-05-01 13:15 41.26376 27.89488 22189 ft 371 kts 254°
2026-05-01 13:15 41.25651 27.86242 22662 ft 372 kts 254°
2026-05-01 13:16 41.24908 27.82935 23144 ft 374 kts 254°
2026-05-01 13:16 41.24159 27.79612 23609 ft 377 kts 254°
2026-05-01 13:16 41.23406 27.76271 24030 ft 378 kts 254°
2026-05-01 13:17 41.21121 27.66150 25208 ft 384 kts 254°
2026-05-01 13:17 41.20352 27.62745 25595 ft 386 kts 254°
2026-05-01 13:18 41.18801 27.55876 26362 ft 390 kts 253°
2026-05-01 13:18 41.18015 27.52419 26729 ft 392 kts 253°
2026-05-01 13:18 41.17227 27.48955 27153 ft 392 kts 253°
2026-05-01 13:18 41.16435 27.45484 27525 ft 395 kts 253°
2026-05-01 13:19 41.15635 27.41981 27840 ft 398 kts 253°
2026-05-01 13:19 41.14832 27.38460 28186 ft 400 kts 253°
2026-05-01 13:19 41.13211 27.31357 28913 ft 404 kts 253°
2026-05-01 13:20 41.12395 27.27785 29263 ft 406 kts 253°
2026-05-01 13:20 41.11571 27.24193 29604 ft 408 kts 253°
2026-05-01 13:20 41.10739 27.20582 29944 ft 410 kts 253°
2026-05-01 13:21 41.09057 27.13308 30477 ft 416 kts 253°
2026-05-01 13:21 41.08209 27.09647 30791 ft 416 kts 253°
2026-05-01 13:21 41.07359 27.05984 31069 ft 416 kts 253°
2026-05-01 13:21 41.06505 27.02313 31297 ft 418 kts 253°
2026-05-01 13:22 41.05646 26.98629 31525 ft 419 kts 253°
2026-05-01 13:22 41.04787 26.94938 31789 ft 419 kts 253°
2026-05-01 13:22 41.03928 26.91252 32094 ft 418 kts 254°
2026-05-01 13:22 41.03072 26.87576 32391 ft 417 kts 254°
2026-05-01 13:23 41.02211 26.83900 32659 ft 418 kts 254°
2026-05-01 13:23 41.01348 26.80225 32902 ft 419 kts 254°
2026-05-01 13:23 41.00495 26.76591 33173 ft 418 kts 254°
2026-05-01 13:23 40.99621 26.72868 33432 ft 417 kts 254°
2026-05-01 13:24 40.98764 26.69212 33809 ft 414 kts 254°
2026-05-01 13:24 40.97911 26.65586 34142 ft 412 kts 254°
2026-05-01 13:24 40.97056 26.61968 34405 ft 411 kts 254°
2026-05-01 13:25 40.95353 26.54798 34823 ft 412 kts 254°
2026-05-01 13:25 40.94496 26.51183 34988 ft 413 kts 254°
2026-05-01 13:25 40.93635 26.47555 35176 ft 413 kts 254°
2026-05-01 13:25 40.92772 26.43931 35373 ft 414 kts 254°
2026-05-01 13:26 40.91908 26.40306 35573 ft 414 kts 254°
2026-05-01 13:26 40.91041 26.36676 35774 ft 414 kts 254°
2026-05-01 13:26 40.90170 26.33051 35954 ft 414 kts 254°
2026-05-01 13:26 40.89300 26.29435 36155 ft 413 kts 254°
2026-05-01 13:27 40.88450 26.25825 36217 ft 409 kts 257°
2026-05-01 13:27 40.87246 26.14732 36218 ft 406 kts 263°
2026-05-01 13:28 40.86177 26.03671 36221 ft 406 kts 263°
2026-05-01 13:29 40.84640 25.88876 36227 ft 407 kts 262°
2026-05-01 13:31 40.81872 25.66723 36234 ft 407 kts 262°
2026-05-01 13:32 40.79604 25.48315 36235 ft 407 kts 262°
2026-05-01 13:33 40.77292 25.29899 36230 ft 407 kts 262°
2026-05-01 13:34 40.75421 25.15179 36230 ft 406 kts 262°
2026-05-01 13:35 40.74006 25.04165 36231 ft 406 kts 262°
2026-05-01 13:35 40.73061 24.96832 35989 ft 405 kts 262°
2026-05-01 13:36 40.72588 24.93181 35743 ft 404 kts 262°
2026-05-01 13:36 40.72115 24.89537 35505 ft 403 kts 262°
2026-05-01 13:36 40.71175 24.82331 34753 ft 394 kts 262°
2026-05-01 13:37 40.70710 24.78788 34318 ft 391 kts 262°
2026-05-01 13:37 40.70248 24.75272 33784 ft 388 kts 262°
2026-05-01 13:37 40.69792 24.71792 33318 ft 383 kts 262°
2026-05-01 13:37 40.69340 24.68367 32851 ft 376 kts 262°
2026-05-01 13:38 40.68452 24.61660 31937 ft 367 kts 261°
2026-05-01 13:38 40.68016 24.58368 31494 ft 363 kts 261°
2026-05-01 13:38 40.67587 24.55155 31056 ft 359 kts 261°
2026-05-01 13:39 40.67157 24.51933 30605 ft 356 kts 261°
2026-05-01 13:39 40.66725 24.48696 30165 ft 352 kts 261°
2026-05-01 13:39 40.66310 24.45583 29718 ft 347 kts 261°
2026-05-01 13:39 40.65893 24.42478 29307 ft 342 kts 261°
2026-05-01 13:40 40.65482 24.39421 28912 ft 336 kts 261°
2026-05-01 13:40 40.65077 24.36414 28527 ft 331 kts 261°
2026-05-01 13:40 40.64676 24.33451 28154 ft 326 kts 261°
2026-05-01 13:40 40.64277 24.30515 27788 ft 325 kts 261°
2026-05-01 13:41 40.63878 24.27590 27422 ft 324 kts 261°
2026-05-01 13:41 40.63481 24.24672 27075 ft 323 kts 261°
2026-05-01 13:41 40.63087 24.21762 26721 ft 322 kts 261°
2026-05-01 13:41 40.62694 24.18864 26370 ft 321 kts 261°
2026-05-01 13:42 40.62301 24.15972 26015 ft 320 kts 261°
2026-05-01 13:42 40.61910 24.13094 25655 ft 318 kts 261°
2026-05-01 13:42 40.61524 24.10249 25310 ft 314 kts 261°
2026-05-01 13:42 40.61141 24.07428 24949 ft 312 kts 261°
2026-05-01 13:43 40.60754 24.04615 24594 ft 313 kts 261°
2026-05-01 13:43 40.60363 24.01799 24223 ft 313 kts 261°
2026-05-01 13:43 40.59972 23.98986 23856 ft 312 kts 261°
2026-05-01 13:43 40.59582 23.96179 23443 ft 311 kts 261°
2026-05-01 13:44 40.59196 23.93382 23060 ft 310 kts 261°
2026-05-01 13:44 40.58810 23.90597 22679 ft 309 kts 261°
2026-05-01 13:44 40.58654 23.87726 22298 ft 324 kts 277°
2026-05-01 13:44 40.59163 23.84812 21930 ft 330 kts 285°
2026-05-01 13:45 40.59803 23.81909 21555 ft 330 kts 285°
2026-05-01 13:45 40.60450 23.79016 21190 ft 330 kts 285°
2026-05-01 13:45 40.61099 23.76125 20827 ft 328 kts 285°
2026-05-01 13:45 40.61743 23.73249 20476 ft 328 kts 285°
2026-05-01 13:46 40.62384 23.70373 20121 ft 327 kts 285°
2026-05-01 13:46 40.63019 23.67505 19777 ft 326 kts 285°
2026-05-01 13:46 40.63653 23.64649 19433 ft 324 kts 285°
2026-05-01 13:46 40.64284 23.61807 19089 ft 323 kts 285°
2026-05-01 13:47 40.64914 23.58974 18752 ft 321 kts 285°
2026-05-01 13:47 40.65539 23.56158 18406 ft 320 kts 285°
2026-05-01 13:47 40.66160 23.53352 18023 ft 318 kts 285°
2026-05-01 13:47 40.66776 23.50560 17645 ft 316 kts 285°
2026-05-01 13:48 40.67377 23.47829 17270 ft 313 kts 285°
2026-05-01 13:48 40.67977 23.45078 16900 ft 312 kts 285°
2026-05-01 13:48 40.68571 23.42335 16528 ft 310 kts 285°
2026-05-01 13:48 40.69158 23.39599 16170 ft 310 kts 285°
2026-05-01 13:49 40.69740 23.36864 15813 ft 309 kts 285°
2026-05-01 13:49 40.70315 23.34143 15464 ft 308 kts 285°
2026-05-01 13:49 40.70886 23.31431 15117 ft 306 kts 285°
2026-05-01 13:49 40.71450 23.28733 14717 ft 305 kts 285°
2026-05-01 13:50 40.72011 23.26033 14236 ft 306 kts 285°
2026-05-01 13:50 40.72568 23.23326 13718 ft 306 kts 285°
2026-05-01 13:50 40.73121 23.20621 13172 ft 305 kts 285°
2026-05-01 13:50 40.73670 23.17926 12639 ft 304 kts 285°
2026-05-01 13:51 40.74215 23.15239 12112 ft 302 kts 285°
2026-05-01 13:51 40.74742 23.12631 11596 ft 286 kts 285°
2026-05-01 13:51 40.75239 23.10155 11082 ft 272 kts 286°
2026-05-01 13:51 40.75706 23.07787 10582 ft 262 kts 285°
2026-05-01 13:52 40.76159 23.05493 10090 ft 257 kts 285°
2026-05-01 13:52 40.76699 23.03266 9553 ft 252 kts 301°
2026-05-01 13:52 40.77852 23.01547 9052 ft 254 kts 322°
2026-05-01 13:52 40.79278 23.00132 8510 ft 259 kts 325°
2026-05-01 13:53 40.80749 22.98734 7986 ft 260 kts 326°
2026-05-01 13:53 40.83569 22.95836 6972 ft 257 kts 313°
2026-05-01 13:53 40.84356 22.93715 6454 ft 262 kts 283°
2026-05-01 13:54 40.84262 22.91322 5925 ft 265 kts 252°
2026-05-01 13:54 40.83303 22.89295 5452 ft 260 kts 221°
2026-05-01 13:54 40.81779 22.88177 5079 ft 245 kts 192°
2026-05-01 13:54 40.80138 22.88101 4692 ft 232 kts 167°
2026-05-01 13:55 40.78605 22.88583 4292 ft 221 kts 164°
2026-05-01 13:55 40.77124 22.89064 3928 ft 219 kts 164°
2026-05-01 13:55 40.75654 22.89537 3556 ft 216 kts 164°
2026-05-01 13:55 40.74235 22.89990 3494 ft 206 kts 164°
2026-05-01 13:56 40.72860 22.90431 3504 ft 199 kts 163°
2026-05-01 13:56 40.71561 22.90845 3504 ft 188 kts 164°
2026-05-01 13:56 40.70303 22.91248 3501 ft 185 kts 164°
2026-05-01 13:56 40.69061 22.91645 3325 ft 182 kts 163°
2026-05-01 13:57 40.67830 22.92039 3110 ft 190 kts 165°
2026-05-01 13:57 40.66946 22.92322 2940 ft 198 kts 165°
2026-05-01 13:57 40.65217 22.92874 2586 ft 184 kts 165°
2026-05-01 13:57 40.64007 22.93260 2331 ft 179 kts 166°
2026-05-01 13:58 40.62829 22.93635 2102 ft 167 kts 166°
2026-05-01 13:58 40.61763 22.93975 1880 ft 146 kts 166°
2026-05-01 13:58 40.60820 22.94276 1691 ft 138 kts 166°
2026-05-01 13:58 40.59905 22.94568 1504 ft 134 kts 166°
2026-05-01 13:59 40.59000 22.94856 1327 ft 133 kts 167°
2026-05-01 13:59 40.58104 22.95142 1143 ft 132 kts 166°
2026-05-01 13:59 40.57210 22.95426 941 ft 132 kts 166°
2026-05-01 13:59 40.56313 22.95714 730 ft 133 kts 168°
2026-05-01 14:00 40.55413 22.96009 543 ft 134 kts 167°
2026-05-01 14:00 40.54506 22.96279 394 ft 133 kts 168°
2026-05-01 14:00 40.53593 22.96574 184 ft 136 kts 166°
2026-05-01 14:00 40.52675 22.96869 44 ft 130 kts 167°
2026-05-01 14:01 40.51901 22.97117 20 ft 86 kts 166°
2026-05-01 14:01 40.51606 22.97210 24 ft 16 kts 166°
2026-05-01 14:01 40.51526 22.97298 26 ft 16 kts 117°
2026-05-01 14:01 40.51548 22.97404 25 ft 13 kts 15°
2026-05-01 14:02 40.51595 22.97398 28 ft 0 kts 347°
2026-05-01 14:02 40.51597 22.97397 28 ft 1 kts 347°
2026-05-01 14:02 40.51614 22.97392 28 ft 4 kts 347°
2026-05-01 14:03 40.51645 22.97383 25 ft 6 kts 347°
2026-05-01 14:03 40.51690 22.97369 25 ft 8 kts 347°
2026-05-01 14:03 40.51727 22.97358 27 ft 9 kts 347°
2026-05-01 14:03 40.51798 22.97335 24 ft 12 kts 346°
2026-05-01 14:04 40.51895 22.97304 20 ft 17 kts 346°
2026-05-01 14:04 40.52015 22.97267 21 ft 18 kts 347°
2026-05-01 14:04 40.52133 22.97229 24 ft 18 kts 345°
2026-05-01 14:04 40.52257 22.97190 24 ft 18 kts 345°
2026-05-01 14:05 40.52354 22.97179 25 ft 11 kts 24°
2026-05-01 14:05 40.52385 22.97257 28 ft 9 kts 76°
2026-05-01 14:05 40.52395 22.97331 29 ft 9 kts 92°
2026-05-01 14:05 40.52336 22.97432 28 ft 14 kts 135°
2026-05-01 14:06 40.52277 22.97507 29 ft 8 kts 131°
2026-05-01 14:06 40.52284 22.97540 27 ft 2 kts 57°
2026-05-01 14:06 40.52291 22.97551 27 ft 1 kts 49°
2026-05-01 14:06 40.52298 22.97560 30 ft 2 kts 45°
2026-05-01 14:07 40.52306 22.97570 29 ft 1 kts 44°
2026-05-01 14:07 40.52313 22.97579 29 ft 1 kts 44°